| time (UTC) | temp F | wind direction | speed MPH | gust MPH | rain 1hr in | rain 24hr in | rain mn in | humidity % | barometer mb |
| 20260507012016 | 57 | 225 | 1.0 | 4.0 | 0.00 | 0.00 | 0.00 | 80 | 1008.0 |
| 20260507011016 | 56 | 225 | 1.0 | 4.0 | 0.00 | 0.00 | 0.00 | 80 | 1008.0 |
| 20260507010016 | 57 | 0.0 | 1.0 | 0.00 | 0.00 | 0.00 | 78 | 1007.8 | |
| 20260507005016 | 57 | 0.0 | 1.0 | 0.00 | 0.00 | 0.00 | 77 | 1007.7 | |
| 20260507004016 | 58 | 248 | 2.0 | 7.0 | 0.00 | 0.00 | 0.00 | 76 | 1007.7 |
| 20260507003016 | 56 | 225 | 2.0 | 8.0 | 0.00 | 0.00 | 0.00 | 79 | 1007.5 |
| 20260507002016 | 57 | 225 | 1.0 | 4.0 | 0.00 | 0.00 | 0.00 | 79 | 1007.5 |
| 20260507001016 | 57 | 225 | 1.0 | 5.0 | 0.00 | 0.00 | 0.00 | 78 | 1007.4 |
| 20260507000016 | 58 | 225 | 1.0 | 4.0 | 0.00 | 0.00 | 0.00 | 78 | 1007.2 |
| 20260506235016 | 58 | 0.0 | 4.0 | 0.00 | 0.00 | 0.00 | 77 | 1007.0 | |
| 20260506234036 | 59 | 203 | 1.0 | 4.0 | 0.00 | 0.00 | 0.00 | 76 | 1006.8 |
| 20260506233016 | 59 | 203 | 1.0 | 4.0 | 0.00 | 0.00 | 0.00 | 75 | 1006.8 |
| 20260506232016 | 60 | 225 | 2.0 | 6.0 | 0.00 | 0.00 | 0.00 | 74 | 1006.7 |
| 20260506231016 | 60 | 225 | 2.0 | 5.0 | 0.00 | 0.00 | 0.00 | 74 | 1006.7 |
| 20260506230056 | 61 | 225 | 2.0 | 6.0 | 0.00 | 0.00 | 0.00 | 73 | 1006.7 |
| 20260506225056 | 61 | 225 | 2.0 | 6.0 | 0.00 | 0.00 | 0.00 | 71 | 1006.5 |
| 20260506224016 | 61 | 225 | 2.0 | 6.0 | 0.00 | 0.00 | 0.00 | 71 | 1006.1 |
| 20260506223016 | 62 | 90 | 1.0 | 4.0 | 0.00 | 0.00 | 0.00 | 70 | 1005.9 |
| 20260506222016 | 62 | 113 | 1.0 | 6.0 | 0.00 | 0.00 | 0.00 | 69 | 1005.7 |
| 20260506221016 | 63 | 90 | 1.0 | 4.0 | 0.00 | 0.00 | 0.00 | 68 | 1005.6 |
| 20260506220016 | 63 | 90 | 1.0 | 8.0 | 0.00 | 0.00 | 0.00 | 68 | 1005.5 |
| 20260506215036 | 63 | 90 | 2.0 | 6.0 | 0.00 | 0.00 | 0.00 | 67 | 1005.4 |
| 20260506214016 | 63 | 68 | 1.0 | 4.0 | 0.00 | 0.00 | 0.00 | 66 | 1005.2 |
| 20260506213036 | 64 | 90 | 2.0 | 7.0 | 0.00 | 0.00 | 0.00 | 66 | 1005.2 |
| 20260506212016 | 64 | 68 | 1.0 | 7.0 | 0.00 | 0.00 | 0.00 | 65 | 1005.1 |
| 20260506211016 | 64 | 90 | 2.0 | 8.0 | 0.00 | 0.00 | 0.00 | 65 | 1005.3 |
| 20260506210016 | 65 | 113 | 2.0 | 6.0 | 0.00 | 0.00 | 0.00 | 64 | 1005.1 |
| 20260506205016 | 65 | 135 | 1.0 | 9.0 | 0.00 | 0.00 | 0.00 | 64 | 1005.1 |
| 20260506204036 | 65 | 90 | 2.0 | 6.0 | 0.00 | 0.00 | 0.00 | 63 | 1005.1 |
| 20260506203016 | 65 | 90 | 3.0 | 8.0 | 0.00 | 0.00 | 0.00 | 62 | 1005.0 |
| 20260506202016 | 66 | 90 | 3.0 | 13.0 | 0.00 | 0.00 | 0.00 | 62 | 1005.0 |
| 20260506201016 | 66 | 68 | 2.0 | 6.0 | 0.00 | 0.00 | 0.00 | 62 | 1004.9 |
| 20260506200016 | 66 | 90 | 3.0 | 12.0 | 0.00 | 0.00 | 0.00 | 61 | 1004.9 |
| 20260506195016 | 66 | 90 | 2.0 | 7.0 | 0.00 | 0.00 | 0.00 | 60 | 1004.6 |
| 20260506194016 | 67 | 90 | 3.0 | 8.0 | 0.00 | 0.00 | 0.00 | 60 | 1004.6 |
| 20260506193016 | 67 | 90 | 2.0 | 8.0 | 0.00 | 0.00 | 0.00 | 59 | 1004.6 |
| 20260506192016 | 67 | 90 | 3.0 | 6.0 | 0.00 | 0.00 | 0.00 | 59 | 1004.5 |
| 20260506191036 | 68 | 90 | 4.0 | 13.0 | 0.00 | 0.00 | 0.00 | 58 | 1004.3 |
| 20260506190016 | 68 | 90 | 4.0 | 10.0 | 0.00 | 0.00 | 0.00 | 58 | 1004.2 |
| 20260506185016 | 68 | 113 | 5.0 | 12.0 | 0.00 | 0.00 | 0.00 | 57 | 1004.2 |
| 20260506184016 | 68 | 90 | 3.0 | 6.0 | 0.00 | 0.00 | 0.00 | 57 | 1004.1 |
| 20260506183016 | 68 | 90 | 5.0 | 14.0 | 0.00 | 0.00 | 0.00 | 56 | 1004.0 |
| 20260506182016 | 69 | 90 | 3.0 | 8.0 | 0.00 | 0.00 | 0.00 | 56 | 1003.9 |
| 20260506181016 | 69 | 113 | 3.0 | 8.0 | 0.00 | 0.00 | 0.00 | 55 | 1003.8 |
| 20260506180056 | 69 | 90 | 4.0 | 12.0 | 0.00 | 0.00 | 0.00 | 55 | 1003.8 |
| 20260506175016 | 70 | 113 | 4.0 | 10.0 | 0.00 | 0.00 | 0.00 | 54 | 1003.9 |
| 20260506174016 | 70 | 90 | 3.0 | 9.0 | 0.00 | 0.00 | 0.00 | 53 | 1003.9 |
| 20260506173016 | 71 | 90 | 3.0 | 10.0 | 0.00 | 0.00 | 0.00 | 51 | 1003.9 |
| 20260506172016 | 71 | 90 | 4.0 | 9.0 | 0.00 | 0.00 | 0.00 | 51 | 1003.8 |
| 20260506171036 | 71 | 90 | 3.0 | 6.0 | 0.00 | 0.00 | 0.00 | 50 | 1003.7 |
| 20260506170016 | 72 | 90 | 2.0 | 6.0 | 0.00 | 0.00 | 0.00 | 50 | 1003.7 |
| 20260506165016 | 72 | 90 | 3.0 | 7.0 | 0.00 | 0.00 | 0.00 | 50 | 1003.8 |
| 20260506164016 | 73 | 113 | 2.0 | 7.0 | 0.00 | 0.00 | 0.00 | 49 | 1003.8 |
| 20260506163016 | 73 | 113 | 4.0 | 11.0 | 0.00 | 0.00 | 0.00 | 49 | 1003.9 |
| 20260506162016 | 73 | 113 | 3.0 | 11.0 | 0.00 | 0.00 | 0.00 | 49 | 1004.0 |
| 20260506161016 | 73 | 113 | 2.0 | 8.0 | 0.00 | 0.00 | 0.00 | 48 | 1004.1 |
| 20260506160037 | 73 | 90 | 3.0 | 9.0 | 0.00 | 0.00 | 0.00 | 48 | 1004.2 |
| 20260506155056 | 74 | 90 | 5.0 | 10.0 | 0.00 | 0.00 | 0.00 | 47 | 1004.2 |
| 20260506154016 | 74 | 90 | 4.0 | 12.0 | 0.00 | 0.00 | 0.00 | 47 | 1004.3 |
| 20260506153016 | 75 | 90 | 5.0 | 11.0 | 0.00 | 0.00 | 0.00 | 47 | 1004.3 |
| 20260506152016 | 75 | 113 | 4.0 | 13.0 | 0.00 | 0.00 | 0.00 | 47 | 1004.4 |
| 20260506151016 | 76 | 90 | 4.0 | 8.0 | 0.00 | 0.00 | 0.00 | 45 | 1004.6 |
| 20260506150016 | 76 | 90 | 4.0 | 11.0 | 0.00 | 0.00 | 0.00 | 45 | 1004.6 |
| 20260506145016 | 76 | 113 | 3.0 | 8.0 | 0.00 | 0.00 | 0.00 | 45 | 1004.6 |
| 20260506144016 | 76 | 90 | 4.0 | 10.0 | 0.00 | 0.00 | 0.00 | 43 | 1004.9 |
| 20260506143016 | 76 | 90 | 4.0 | 10.0 | 0.00 | 0.00 | 0.00 | 44 | 1004.9 |
| 20260506142016 | 77 | 90 | 3.0 | 9.0 | 0.00 | 0.00 | 0.00 | 44 | 1004.9 |
| 20260506141016 | 77 | 90 | 4.0 | 9.0 | 0.00 | 0.00 | 0.00 | 44 | 1005.0 |
| 20260506140016 | 76 | 113 | 3.0 | 9.0 | 0.00 | 0.00 | 0.00 | 44 | 1005.0 |
| 20260506135036 | 75 | 90 | 3.0 | 9.0 | 0.00 | 0.00 | 0.00 | 47 | 1005.2 |
| 20260506134036 | 75 | 90 | 4.0 | 7.0 | 0.00 | 0.00 | 0.00 | 47 | 1005.4 |
| 20260506133016 | 75 | 90 | 4.0 | 9.0 | 0.00 | 0.00 | 0.00 | 46 | 1005.4 |
| 20260506132016 | 74 | 90 | 3.0 | 6.0 | 0.00 | 0.00 | 0.00 | 47 | 1005.7 |
| 20260506131016 | 74 | 90 | 3.0 | 9.0 | 0.00 | 0.00 | 0.00 | 48 | 1005.9 |
| 20260506130016 | 75 | 90 | 4.0 | 10.0 | 0.00 | 0.00 | 0.00 | 48 | 1006.3 |
| 20260506125016 | 75 | 90 | 4.0 | 11.0 | 0.00 | 0.00 | 0.00 | 50 | 1006.3 |
| 20260506124016 | 74 | 90 | 3.0 | 6.0 | 0.00 | 0.00 | 0.00 | 50 | 1006.5 |
| 20260506123016 | 75 | 113 | 3.0 | 9.0 | 0.00 | 0.00 | 0.00 | 50 | 1006.6 |
| 20260506122036 | 75 | 90 | 4.0 | 11.0 | 0.00 | 0.00 | 0.00 | 50 | 1006.6 |
| 20260506121016 | 74 | 113 | 2.0 | 6.0 | 0.00 | 0.00 | 0.00 | 52 | 1006.6 |
| 20260506120036 | 75 | 90 | 4.0 | 10.0 | 0.00 | 0.00 | 0.00 | 50 | 1006.7 |
| 20260506115016 | 75 | 90 | 4.0 | 12.0 | 0.00 | 0.00 | 0.00 | 51 | 1006.7 |
| 20260506114016 | 77 | 90 | 3.0 | 7.0 | 0.00 | 0.00 | 0.00 | 50 | 1006.7 |
| 20260506113036 | 75 | 90 | 3.0 | 12.0 | 0.00 | 0.00 | 0.00 | 50 | 1006.7 |
| 20260506112016 | 75 | 90 | 3.0 | 8.0 | 0.00 | 0.00 | 0.00 | 51 | 1006.7 |
| 20260506111036 | 74 | 90 | 4.0 | 7.0 | 0.00 | 0.00 | 0.00 | 51 | 1006.9 |
| 20260506110016 | 76 | 90 | 3.0 | 8.0 | 0.00 | 0.00 | 0.00 | 49 | 1007.0 |
| 20260506105016 | 75 | 90 | 3.0 | 9.0 | 0.00 | 0.00 | 0.00 | 53 | 1007.0 |
| 20260506104016 | 76 | 90 | 4.0 | 9.0 | 0.00 | 0.00 | 0.00 | 49 | 1007.2 |
| 20260506103016 | 77 | 203 | 1.0 | 5.0 | 0.00 | 0.00 | 0.00 | 47 | 1007.2 |
| 20260506102016 | 75 | 90 | 2.0 | 5.0 | 0.00 | 0.00 | 0.00 | 48 | 1007.2 |
| 20260506101016 | 74 | 90 | 4.0 | 8.0 | 0.00 | 0.00 | 0.00 | 48 | 1007.4 |
| 20260506100036 | 75 | 90 | 2.0 | 5.0 | 0.00 | 0.00 | 0.00 | 48 | 1007.6 |
| 20260506095016 | 76 | 90 | 2.0 | 6.0 | 0.00 | 0.00 | 0.00 | 49 | 1007.7 |
| 20260506094036 | 75 | 90 | 2.0 | 5.0 | 0.00 | 0.00 | 0.00 | 47 | 1007.8 |
| 20260506093016 | 75 | 90 | 2.0 | 5.0 | 0.00 | 0.00 | 0.00 | 47 | 1007.7 |
| 20260506092136 | 74 | 90 | 1.0 | 5.0 | 0.00 | 0.00 | 0.00 | 51 | 1007.6 |
| 20260506091016 | 74 | 68 | 1.0 | 4.0 | 0.00 | 0.00 | 0.00 | 50 | 1007.7 |
| 20260506090016 | 73 | 113 | 1.0 | 4.0 | 0.00 | 0.00 | 0.00 | 49 | 1007.8 |
| 20260506085016 | 73 | 90 | 1.0 | 6.0 | 0.00 | 0.00 | 0.00 | 50 | 1007.9 |
| 20260506084016 | 73 | 248 | 1.0 | 5.0 | 0.00 | 0.00 | 0.00 | 52 | 1008.0 |
| 20260506083036 | 73 | 90 | 2.0 | 5.0 | 0.00 | 0.00 | 0.00 | 51 | 1008.0 |
| 20260506082016 | 73 | 248 | 1.0 | 3.0 | 0.00 | 0.00 | 0.00 | 53 | 1008.1 |
| 20260506081016 | 72 | 90 | 1.0 | 4.0 | 0.00 | 0.00 | 0.00 | 57 | 1008.0 |
| 20260506073016 | 69 | 90 | 1.0 | 2.0 | 0.00 | 0.00 | 0.00 | 65 | 1008.2 |
| 20260506072016 | 69 | 90 | 1.0 | 3.0 | 0.00 | 0.00 | 0.00 | 66 | 1008.2 |
| 20260506071016 | 69 | 90 | 1.0 | 3.0 | 0.00 | 0.00 | 0.00 | 64 | 1008.2 |
| 20260506062016 | 65 | 0.0 | 3.0 | 0.00 | 0.00 | 0.00 | 69 | 1008.2 | |
| 20260506061036 | 64 | 0.0 | 1.0 | 0.00 | 0.00 | 0.00 | 71 | 1008.2 | |
| 20260506051036 | 58 | 0.0 | 3.0 | 0.00 | 0.00 | 0.00 | 79 | 1008.0 | |
| 20260506045016 | 56 | 0.0 | 1.0 | 0.00 | 0.00 | 0.00 | 82 | 1007.8 | |
| 20260506044016 | 55 | 0.0 | 2.0 | 0.00 | 0.00 | 0.00 | 82 | 1007.7 | |
| 20260506043036 | 55 | 0.0 | 0.0 | 0.00 | 0.00 | 0.00 | 81 | 1007.5 | |
| 20260506042036 | 55 | 0.0 | 1.0 | 0.00 | 0.00 | 0.00 | 82 | 1007.4 | |
| 20260506041016 | 54 | 0.0 | 1.0 | 0.00 | 0.00 | 0.00 | 83 | 1007.4 | |
| 20260506040036 | 54 | 0.0 | 1.0 | 0.00 | 0.00 | 0.00 | 83 | 1007.4 | |
| 20260506035016 | 54 | 0.0 | 1.0 | 0.00 | 0.00 | 0.00 | 83 | 1007.4 | |
| 20260506034036 | 53 | 0.0 | 0.0 | 0.00 | 0.00 | 0.00 | 83 | 1007.4 | |
| 20260506033016 | 53 | 0.0 | 1.0 | 0.00 | 0.00 | 0.00 | 83 | 1007.3 | |
| 20260506032016 | 53 | 0.0 | 1.0 | 0.00 | 0.00 | 0.00 | 82 | 1007.3 | |
| 20260506031036 | 54 | 0.0 | 1.0 | 0.00 | 0.00 | 0.00 | 82 | 1007.2 | |
| 20260506030016 | 54 | 0.0 | 1.0 | 0.00 | 0.00 | 0.00 | 81 | 1007.1 | |
| 20260506025056 | 55 | 0.0 | 1.0 | 0.00 | 0.00 | 0.00 | 80 | 1007.0 | |
| 20260506024016 | 55 | 0.0 | 1.0 | 0.00 | 0.00 | 0.00 | 80 | 1007.0 | |
| 20260506023016 | 55 | 0.0 | 3.0 | 0.00 | 0.00 | 0.00 | 79 | 1006.9 | |
| 20260506022016 | 55 | 0.0 | 2.0 | 0.00 | 0.00 | 0.00 | 78 | 1007.0 | |
| 20260506021016 | 56 | 0.0 | 2.0 | 0.00 | 0.00 | 0.00 | 78 | 1007.0 | |
| 20260506020016 | 56 | 225 | 1.0 | 3.0 | 0.00 | 0.00 | 0.00 | 77 | 1006.9 |
| 20260506015016 | 56 | 0.0 | 2.0 | 0.00 | 0.00 | 0.00 | 76 | 1006.7 | |
| 20260506014017 | 57 | 203 | 1.0 | 4.0 | 0.00 | 0.00 | 0.00 | 75 | 1006.5 |
| 20260506013016 | 57 | 225 | 1.0 | 4.0 | 0.00 | 0.00 | 0.00 | 74 | 1006.6 |